Voltar ao catálogo

SL-8 R/B

AtivoPO
NORAD 18986·ROCKET BODY·🇷🇺 Russia

Lançado Mar 22, 1988 de Plesetsk Cosmodrome

Loading…

Próximas Passagens (próximas 24 horas)

TLE

AtualizadoSource: Space-Track

Época: Sep 14, 2026, 20:13 UTC

1 18986U 88023B   26257.84250139  .00000144  00000-0  12511-3 0  9999
2 18986  82.9527  50.7876 0042948  96.3663 264.2389 13.78950349935640

Acompanhe SL-8 R/B em tempo real com AllMySat

Download on the App Store